Regional Weather Roundup
Issued by NWS New Orleans/Baton Rouge, LA

Home | Current Version | Previous Version | Graphics & Text | Print | Product List | Glossary On
Versions: 1 2 3 4 5 6 7 8 9 10 11 12 13 14 15 16 17 18 19 20 21 22 23 24 25 26 27 28 29 30 31 32 33 34 35 36 37 38 39 40 41 42 43 44 45 46 47 48 49 50
000
ASUS44 KLIX 270501
RWRLIX
NEW ORLEANS REGIONAL WEATHER ROUNDUP
NATIONAL WEATHER SERVICE NEW ORLEANS LA
1100 PM CST WED NOV 26 2014

NOTE: "FAIR" INDICATES FEW OR NO CLOUDS BELOW 12,000 FEET WITH NO
      SIGNIFICANT WEATHER AND/OR OBSTRUCTIONS TO VISIBILITY.
      SKY/WX - SKY CONDITION AND SIGNIFICANT WEATHER.
      TMP - AIR TEMPERATURE.     DP    - DEWPOINT TEMPERATURE.
      RH  - RELATIVE HUMIDITY.   PRES  - PRESSURE.
      HI  - HEAT INDEX.          WCI   - WIND CHILL INDEX.

*  THESE STATIONS ARE NOT NWS OR FAA STATIONS AND ARE NOT UNDER
   NWS QUALITY CONTROL.

LAZ038-040-048-061>063-065>067-069-270600-
SOUTHEAST LOUISIANA

CITY           SKY/WX    TMP DP  RH WIND       PRES   REMARKS
N.O. AUDUBON     N/A     56  50  82 MISG        N/A
N.O. INTL ARPT CLEAR     56  48  74 W13       30.27R
N.O. LAKEFRONT CLEAR     59  49  69 W17       30.26R
N.O. DOWNTOWN*   N/A     55  45  67 SW5       30.27S
SLIDELL        CLEAR     56  48  74 VRB3      30.24R
BATON ROUGE    CLEAR     51  44  77 W5        30.26R
BOOTHVILLE     CLEAR     62  52  69 W12       30.27S
BELLE CHASSE   CLEAR     56  48  74 W9        30.27R
BOGALUSA*        N/A     50  40  69 CALM      30.25R
NEW ROADS*     NOT AVBL
GONZALES*      NOT AVBL
HAMMOND*       NOT AVBL
HOUMA*         CLEAR     53  51  94 W3        30.28R
PORT FOURCHON* CLEAR     63  54  72 W12       30.31S

$$

MSZ070-080>082-270600-
SOUTHERN MISSISSIPPI

CITY           SKY/WX    TMP DP  RH WIND       PRES   REMARKS
MCCOMB         CLEAR     53  41  63 NW10      30.25R
GULFPORT       CLEAR     55  45  68 W7        30.23R
BILOXI         CLEAR     56  46  67 VRB6      30.23R
PASCAGOULA     CLEAR     54  47  77 W5        30.23R

$$

COASTAL OBSERVATIONS
LAKE AND NEARSHORE STATIONS

STATION/POSITION TIME  TEMP    WIND        PRES    WAVE
                       AIR SEA DIR/SP/G            HT/PER
                 (UTC) (F)     (DEG/KT/KT) (MB)    (FT/S)
PASCAGOULA       0400   59     260/ 12/ 17 1023.0
WAVELAND YACHT   0400   57     270/  6/  9 1022.9
GRAND ISLE       0400   61 60  260/ 10/ 13 1025.4
SOUTHWEST PASS   0400   66                 1025.7
NEW CANAL        0400   59 54  240/  9/ 13 1024.9
SHELL BEACH      0400   56 53  240/ 10/ 14 1024.4

OFFSHORE STATIONS

STATION/POSITION TIME  TEMP    WIND        PRES    WAVE
                       AIR SEA DIR/SP/G            HT/PER
                 (UTC) (F)     (DEG/KT/KT) (MB)    (FT/S)
64 S DAUPHIN ISL 0432   66 70  270/ 23/ 27 1025.3    5/ 5

$$




USA.gov is the U.S. government's official web portal to all federal, state and local government web resources and services.